Home > Time Zones > World Clock > Weather > China > Hefei > Past weeks

Flag for China Weather past 2 weeks in Hefei, Anhui, China

Now
72 °F

Fog.


Feels Like: 69 °F
Forecast: 68 / 80 °F
Wind: 8 mph from East

Location: Hefei Airport

Current Time: Jul 5, 2015 at 7:24:20 AM

Latest Report: Jul 5, 2015 at 7:00 AM


Visibility: 2 mi

Pressure: 29.83 "Hg

Humidity: 88%

Dew point: 68 °F

Location of HefeiLocation

Historic Weather in Hefei — Graph

°F

Hefei temperature yesterday

Maximum temperature yesterday: 81 °F (at 1:00 PM)
Minimum temperature yesterday: 72 °F (at 3:00 AM)
Average temperature yesterday: 76 °F

Past Weeks' High & Low Weather Summary

 TemperatureHumidityPressure
High90 °F (Jun 29, 3:00 PM)100% (Jun 22, 5:00 AM)29.83 "Hg (Jun 22, 5:00 AM)
Low68 °F (Jun 22, 5:00 AM)55% (Jul 2, 4:00 PM)29.50 "Hg (Jun 25, 3:00 AM)
Average76 °F88%29.65 "Hg
* Reported Jun 20 6:00 AM — Jul 5 6:00 AM, Hefei, Weather by CustomWeather, © 2015

Note: Actual official high and low records may vary slightly from our data, if they occured in-between our weather recording intervals... More about our weather records

Advertising

Hefei weather history for previous 24 hours

 ConditionsComfort  
Time TempWeatherWind HumidityBarometerVisibility
6:00 AM
Sun, Jul 5
68 °FFog.3 mph100%29.80 "Hg1 mi
5:00 AM68 °FFog.3 mph100%29.80 "Hg1 mi
4:00 AM70 °FFog.3 mph88%29.80 "Hg2 mi
3:00 AM70 °FFog.3 mph88%29.80 "Hg2 mi
2:00 AM70 °FFog.3 mph88%29.80 "Hg3 mi
1:00 AM70 °FFog.3 mph88%29.80 "Hg3 mi
12:00 AM72 °FFog.3 mph88%29.80 "Hg2 mi
11:00 PM
Sat, Jul 4
73 °FFog.3 mph78%29.80 "Hg3 mi
10:00 PM73 °FFog.6 mph78%29.80 "Hg3 mi
9:00 PM73 °FFog.3 mph83%29.80 "Hg3 mi
8:00 PM75 °FFog.3 mph83%29.77 "Hg3 mi
7:00 PM77 °FFog.3 mph79%29.77 "Hg3 mi
6:00 PM77 °FFog.3 mph74%29.77 "Hg3 mi
5:00 PM79 °FPassing clouds.6 mph70%29.77 "Hg4 mi
4:00 PM79 °FPassing clouds.8 mph65%29.77 "Hg4 mi
3:00 PM79 °FScattered clouds.6 mph70%29.77 "Hg4 mi
2:00 PM81 °FPartly sunny.8 mph62%29.77 "Hg4 mi
1:00 PM81 °FHaze.6 mph66%29.77 "Hg3 mi
12:00 PM79 °FHaze.6 mph70%29.77 "Hg2 mi
11:00 AM79 °FScattered clouds.8 mph74%29.80 "Hg2 mi
10:00 AM77 °FFog.6 mph83%29.80 "Hg2 mi
9:00 AM75 °FFog.3 mph89%29.80 "Hg2 mi
8:00 AM75 °FFog.1 mph83%29.80 "Hg1 mi
7:00 AM72 °FFog.3 mph94%29.80 "Hg1 mi
Weather by CustomWeather, © 2015

See weather overviewHow to use our weather pages